Time,TemperatureF,DewpointF,PressureIn,WindDirection,WindDirectionDegrees,WindSpeedMPH,WindSpeedGustMPH,Humidity,HourlyPrecipIn,Conditions,Clouds,dailyrainin,SoftwareType,DateUTC
2013-06-19 00:39:00,59.8,48.8,29.85,ESE,118,0.0,5.0,67,0.00,,---,0.00,VWS V14.01,2013-06-19 08:39:00,
2013-06-19 03:30:00,49.2,47.0,29.85,ESE,113,0.0,0.0,92,0.00,,---,0.01,VWS V14.01,2013-06-19 11:30:00,
2013-06-19 04:00:00,50.5,48.3,29.85,ESE,113,0.0,0.0,92,0.00,,---,0.01,VWS V14.01,2013-06-19 12:00:00,
2013-06-19 06:09:00,50.2,48.3,29.83,ESE,113,0.0,1.0,93,0.00,,---,0.01,VWS V14.01,2013-06-19 14:09:00,
2013-06-19 06:38:00,51.0,49.3,29.82,ESE,113,0.0,0.0,94,0.00,,---,0.01,VWS V14.01,2013-06-19 14:38:00,
2013-06-19 07:04:00,51.6,49.7,29.82,ESE,113,0.0,0.0,93,0.00,,---,0.01,VWS V14.01,2013-06-19 15:04:00,
2013-06-19 07:34:00,52.5,50.0,29.80,East,88,0.0,3.0,91,0.00,,---,0.01,VWS V14.01,2013-06-19 15:34:00,
2013-06-19 08:04:00,52.6,50.0,29.80,East,90,0.0,3.0,91,0.00,,---,0.01,VWS V14.01,2013-06-19 16:04:00,
2013-06-19 08:38:00,52.5,50.5,29.80,East,90,0.0,0.0,93,0.00,,---,0.01,VWS V14.01,2013-06-19 16:38:00,
2013-06-19 09:30:00,53.6,51.9,29.79,East,90,0.0,1.0,94,0.00,,---,0.01,VWS V14.01,2013-06-19 17:30:00,
2013-06-19 10:04:00,53.6,51.9,29.79,SSE,163,0.0,1.0,94,0.00,,---,0.01,VWS V14.01,2013-06-19 18:04:00,
2013-06-19 11:00:00,54.1,52.4,29.81,SSW,207,0.0,2.0,94,0.01,,---,0.02,VWS V14.01,2013-06-19 19:00:00,
2013-06-19 13:00:00,54.8,53.4,29.82,NW,320,0.0,3.0,95,0.00,,---,0.03,VWS V14.01,2013-06-19 21:00:00,
2013-06-19 13:34:00,55.2,53.2,29.83,North,350,0.0,3.0,93,0.00,,---,0.03,VWS V14.01,2013-06-19 21:34:00,
2013-06-19 14:00:00,55.6,51.8,29.83,North,355,0.0,3.0,87,0.00,,---,0.03,VWS V14.01,2013-06-19 22:00:00,
2013-06-19 15:30:00,59.6,50.6,29.85,WNW,302,0.0,5.0,72,0.00,,---,0.03,VWS V14.01,2013-06-19 23:30:00,
2013-06-19 17:30:00,61.2,49.3,29.88,ESE,118,3.0,8.0,65,0.00,,---,0.04,VWS V14.01,2013-06-20 01:30:00,
2013-06-19 18:04:00,62.7,50.8,29.88,NE,34,3.0,6.0,65,0.00,,---,0.04,VWS V14.01,2013-06-20 02:04:00,
2013-06-19 18:30:00,59.8,49.2,29.89,NE,34,0.0,6.0,68,0.00,,---,0.04,VWS V14.01,2013-06-20 02:30:00,
2013-06-19 19:04:00,58.8,48.3,29.90,WNW,288,0.0,6.0,68,0.00,,---,0.04,VWS V14.01,2013-06-20 03:04:00,
2013-06-19 20:30:00,58.7,48.2,29.91,NE,50,0.0,5.0,68,0.00,,---,0.04,VWS V14.01,2013-06-20 04:30:00,
2013-06-19 21:04:00,58.7,48.6,29.91,ENE,69,0.0,2.0,69,0.00,,---,0.04,VWS V14.01,2013-06-20 05:04:00,
2013-06-19 23:30:00,52.3,46.7,29.94,ENE,69,0.0,0.0,81,0.00,,---,0.04,VWS V14.01,2013-06-20 07:30:00,